Погода в Усть-Борзе

Россия / Забайкальский край     50°36′07″N   115°40′38″E
темп.,
°C
ветер,
м/с
пор.,
м/с
влажн.,
%
обл.,
%
осадки,
мм/ч
давл.,
гПа
погр.,
м
22 апреля, чт
чт2200:00+10с91549100 0.0 1006702
03:00+7ссз9135190 0.0 1009615
06:00+4с814586 0.0 1013620
09:00+6с10134136 0.0 1016738
12:00+10с910220 0.0 10161077
15:00+12с99153 0.0 10161431
18:00+12с89185 0.0 10181353
21:00+8с913200 0.0 1023709
23 апреля, пт
пт2300:00+4ссв915255 0.0 1026475
03:00+2ссв9143454 0.0 1029526
06:00+1ссв81248100 0.0 1032471
09:00+2ссв91147100 0.1 1035709
12:00+7с7733100 0.0 10341341
15:00+9с7719100 0.0 10321729
18:00+8с7716100 0.0 10331519
21:00+6с5822100 0.0 1035545
24 апреля, сб
сб2400:00+4ссв3726100 0.0 1036192
03:00+2ссв2226100 0.0 103614
06:00+1ссв112773 0.0 103610
09:00+5ссв1219100 0.0 1036268
12:00+8ссз221398 0.0 10341247
15:00+11сз221079 0.0 10311627
18:00+12сз119100 0.0 10281534
21:00+8юз2214100 0.0 102824
25 апреля, вс
вс2500:00+8юв2215100 0.0 102816
03:00+6юв221594 0.0 102515
06:00+7вюв3517100 0.0 1024120
09:00+9ююв61016100 0.0 1022554
12:00+12ююв7913100 0.0 10181034
15:00+15ю8915100 0.0 10131235
18:00+15ю7101693 0.0 10101311
21:00+12вюв492190 0.0 1008163
26 апреля, пн
пн2600:00+11ссз4532100 0.0 1006117
03:00+7ссз6981100 0.1 1005395
06:00+6сз7985100 0.0 1005524
09:00+4сз687377 0.0 1006555
12:00+10ссз454794 0.0 10021278
15:00+11ссв6445100 0.0 10011408
18:00+10ссв7652100 0.0 10001296
21:00+8ссв6864100 0.0 10011088